Regional Weather Roundup
Issued by NWS

Home | Current Version | Previous Version | Graphics & Text | Print | Product List | Glossary On
Versions: 1 2 3 4 5 6 7 8 9 10 11 12 13 14 15 16 17 18 19 20 21 22 23 24 25 26 27 28 29 30 31 32 33 34 35 36 37 38 39 40 41 42 43 44 45 46 47 48 49 50
000
ASUS43 KOAX 232010
RWRNE

WEATHER ROUNDUP FOR NEBRASKA
NATIONAL WEATHER SERVICE OMAHA NE
300 PM CDT SAT MAY 23 2015

NOTES: SATELLITE DATA IS BEING USED TO AUGMENT CLOUD COVER ABOVE
       12000 FEET.
       "FAIR" INDICATES FEW OR NO CLOUDS BELOW 12,000 FEET WITH NO
       SIGNIFICANT WEATHER AND/OR OBSTRUCTIONS TO VISIBILITY.

  * THESE STATIONS DO NOT REPORT WEATHER SUCH AS RAIN...SNOW OR FOG.

NEZ001>004-019>022-054>056-232100-
NEBRASKA PANHANDLE

CITY           SKY/WX    TMP DP  RH WIND       PRES   REMARKS
SCOTTSBLUFF    CLOUDY    57  53  86 E16       29.98S
ALLIANCE       CLOUDY    54  53  97 E17       29.99F FOG
CHADRON        CLOUDY    59  53  80 NE9       29.99F
KIMBALL          N/A    N/A N/A N/A MISG        N/A
SIDNEY         CLOUDY    54  54 100 E13       29.97F FOG
$$

NEZ057>060-069>072-079>082-232100-
SOUTHWEST NEBRASKA

CITY           SKY/WX    TMP DP  RH WIND       PRES   REMARKS
NORTH PLATTE   CLOUDY    59  55  87 E13       30.04F
IMPERIAL       CLOUDY    61  53  75 SE10      29.99F
LEXINGTON      LGT RAIN  58  57  96 SE14      30.04R
MCCOOK         CLOUDY    66  54  65 SE15      30.00F
OGALLALA       CLOUDY    58  56  92 SE12      30.01F
$$

NEZ005>010-023>029-035>040-094-232100-
NORTH CENTRAL NEBRASKA

CITY           SKY/WX    TMP DP  RH WIND       PRES   REMARKS
VALENTINE      CLOUDY    57  53  86 E14       30.06F
AINSWORTH      CLOUDY    57  56  95 SE16      30.08F
BROKEN BOW     CLOUDY    56  54  93 E13       30.05F FOG
O`NEILL        CLOUDY    58  54  86 SE8       30.11F
ORD            CLOUDY    57  53  86 SE9       30.08F
THEDFORD       DRIZZLE   55  54  95 SE12      30.07S
$$

NEZ041-046>049-061>064-073>077-083>087-232100-
SOUTH CENTRAL NEBRASKA

CITY           SKY/WX    TMP DP  RH WIND       PRES   REMARKS
GRAND ISLAND   CLOUDY    60  54  80 SE9       30.09F
AURORA         CLOUDY    59  57  94 SE12      30.09F
HASTINGS       CLOUDY    59  55  87 SE13      30.06F
HEBRON         CLOUDY    61  57  86 S8        30.11F
HOLDREGE       CLOUDY    57  55  91 SE14      30.03F
KEARNEY *      CLOUDY    57  54  88 SE10      30.06F
YORK           CLOUDY    59  57  94 SE12      30.11F
$$

NEZ011>018-030>034-042>045-232100-
NORTHEAST NEBRASKA

CITY           SKY/WX    TMP DP  RH WIND       PRES   REMARKS
NORFOLK        CLOUDY    58  55  90 SE10      30.13S
ALBION         CLOUDY    58  54  86 SE7       30.11F
BLAIR          CLOUDY    61  54  79 SE8       30.14F
COLUMBUS *     CLOUDY    57  52  82 SE7       30.16F
FREMONT        CLOUDY    61  56  83 SE7       30.14F
TEKAMAH        CLOUDY    63  55  75 S13       30.14S
WAYNE          CLOUDY    60  55  84 SE12      30.15R
$$

NEZ050>053-065>068-078-088>093-232100-
SOUTHEAST NEBRASKA

CITY           SKY/WX    TMP DP  RH WIND       PRES   REMARKS
LINCOLN        LGT RAIN  62  57  83 S3        30.14S
OMAHA EPPLEY   CLOUDY    64  56  75 S9        30.14F
BEATRICE       LGT RAIN  62  58  85 SW7       30.12S
FALLS CITY     CLOUDY    66  58  75 SE14      30.12F
NEBRASKA CITY  CLOUDY    65  56  72 SE7       30.12F
PLATTSMOUTH    CLOUDY    64  56  75 SE8       30.13F
$$

NEZ044-045-051>053-067-232100-
OMAHA AREA

CITY           SKY/WX    TMP DP  RH WIND       PRES   REMARKS
OMAHA EPPLEY   CLOUDY    64  56  75 S9        30.14F
BLAIR          CLOUDY    61  54  79 SE8       30.14F
FREMONT        CLOUDY    61  56  83 SE7       30.14F
MILLARD        CLOUDY    63  57  81 NE7       30.14F
OFFUTT AFB     CLOUDY    64  57  78 SE8       30.13F
PLATTSMOUTH    CLOUDY    64  56  75 SE8       30.13F
WAHOO          CLOUDY    61  56  82 SE8       30.13F
$$



USA.gov is the U.S. government's official web portal to all federal, state and local government web resources and services.